Wind_Speed
63 64 66 68 70 71 71 70 68 65 63 62 61 59 61 61 61 61 62 63 63 61 61 62 63 64 64 63 63 62 60 56 54 53 53 52 52 51
63 65 67 69 70 69 69 68 68 66 65 62 62 60 59 59 58 59 60 60 60 59 60 61 62 63 64 65 65 64 62 58 56 54 53 53 53 51
64 65 66 68 68 68 67 66 66 66 66 63 62 56 50 47 45 46 49 50 49 49 50 51 52 55 59 62 64 65 63 61 58 56 54 54 53 51
63 64 65 66 65 65 64 65 64 63 61 57 51 45 41 40 39 39 39 39 40 41 41 41 42 46 50 54 57 59 61 61 59 57 55 54 53 51
63 63 62 62 62 63 62 59 55 52 50 47 41 38 36 37 36 34 33 33 34 36 36 37 40 43 45 47 49 51 54 56 56 55 53 52 51 50
61 61 61 61 61 59 53 48 45 44 44 41 36 33 33 33 31 29 28 28 29 31 33 35 37 39 41 41 42 44 46 47 48 48 48 48 48 48
61 61 60 58 55 49 44 42 41 41 38 33 29 27 27 26 25 24 23 23 25 26 27 27 27 28 30 31 33 35 36 38 40 42 43 44 45 46
60 58 54 50 45 42 40 38 37 35 29 24 20 19 20 21 20 18 17 17 18 18 16 16 18 17 18 20 22 25 29 32 35 37 39 40 42 42
55 51 47 42 39 38 35 33 32 28 19 15 14 15 14 14 12 11 10 10 10 11 10 10 12 11 12 14 16 19 22 27 31 33 36 38 39 39
47 43 40 37 36 33 29 26 24 16 11 10 10 9 8 7 6 6 6 7 7 7 6 6 7 7 9 11 13 16 20 23 27 31 34 37 38 38
39 36 35 34 32 27 22 18 13 8 6 5 4 4 3 2 2 4 4 4 4 3 2 3 3 4 6 8 11 15 19 24 28 32 34 36 38 38
31 31 31 30 25 19 12 8 4 1 1 2 3 4 3 2 2 2 2 2 1 3 4 6 7 8 9 10 12 15 18 22 26 31 34 36 37 38
25 25 24 20 14 7 2 3 5 6 5 4 4 5 5 4 3 3 3 4 6 8 10 11 12 11 10 10 11 12 15 17 21 26 31 35 38 40
20 18 14 11 6 6 8 10 9 8 6 5 5 5 5 5 5 5 8 11 13 13 12 9 7 5 4 5 5 6 9 11 15 21 27 33 38 42
15 11 9 7 8 11 12 12 11 9 7 5 4 4 4 5 7 10 13 13 10 6 1 5 6 4 2 2 1 2 4 5 8 13 20 28 35 41
11 9 9 10 12 13 13 11 9 7 5 4 3 4 5 7 10 12 11 11 12 12 12 13 12 11 10 10 9 9 7 4 2 3 10 20 29 37
6 7 11 13 14 13 11 8 6 5 5 4 5 6 7 9 11 11 14 17 19 19 18 17 17 17 17 15 15 15 15 14 12 11 13 17 24 31
5 8 10 11 10 10 8 7 6 6 6 6 7 8 9 9 11 13 18 20 22 22 22 21 20 20 20 19 20 21 21 22 23 22 22 20 22 26
7 9 10 9 9 8 7 7 6 6 7 8 8 9 9 10 12 15 19 21 22 22 22 21 21 22 21 19 20 24 25 25 25 26 27 26 24 25
8 9 9 9 10 9 9 8 7 7 8 9 9 10 11 12 14 17 19 20 19 19 19 20 20 20 19 17 18 22 24 25 26 27 29 29 27 25
9 9 9 10 11 11 11 9 8 7 8 10 11 12 14 17 18 20 21 21 20 19 19 18 19 19 18 19 20 21 23 24 25 26 28 29 27 26
10 10 11 11 12 12 12 10 8 8 10 13 14 16 18 20 21 23 23 23 23 23 23 23 24 24 24 24 25 27 29 30 28 27 27 27 26 24
12 12 12 12 12 12 12 11 10 11 14 15 16 18 19 20 21 23 24 24 26 27 28 29 30 29 29 29 29 29 30 31 31 31 31 31 31 29
Wind_Direction
295 295 295 296 297 297 297 296 295 294 292 291 289 287 285 282 280 277 274 272 270 268 266 265 264 263 261 260 259 259 258 256 252 250 248 247 248 246
297 298 298 298 297 296 295 295 295 294 293 291 288 286 284 282 280 277 274 272 270 268 266 265 263 262 260 258 256 256 254 252 248 246 245 245 245 244
300 300 299 299 298 298 298 297 296 295 294 292 290 288 284 281 279 278 276 272 269 268 267 265 263 260 258 256 254 252 250 248 246 243 242 242 242 241
301 300 300 300 299 299 299 298 297 296 295 294 292 288 283 280 281 281 279 273 267 266 266 266 264 261 258 255 251 248 246 245 243 242 241 240 239 237
301 301 301 301 301 301 300 299 298 296 296 294 291 285 282 281 283 281 277 270 266 265 266 264 261 260 257 254 250 247 244 243 241 240 237 235 234 232
303 303 303 303 303 303 302 300 299 298 298 295 289 283 281 281 281 280 276 271 267 264 263 260 259 259 257 252 247 243 241 239 236 232 229 228 228 227
306 305 304 304 304 305 304 302 301 301 299 294 289 284 281 280 282 281 277 272 268 265 262 260 257 255 253 247 241 236 233 229 225 222 222 223 223 222
306 305 304 305 306 306 306 305 303 303 299 294 291 285 283 284 283 280 273 266 262 261 260 254 250 246 243 238 231 227 224 220 217 216 216 217 216 216
305 304 306 307 306 305 305 304 302 302 297 295 293 290 290 288 282 272 261 249 246 252 255 244 244 242 237 230 224 221 218 215 213 211 211 212 213 214
305 307 309 308 307 307 304 299 298 296 295 299 300 298 297 291 274 249 243 243 250 256 256 247 249 248 241 233 226 220 215 211 209 210 211 212 212 213
307 310 312 313 313 310 303 296 290 288 302 314 315 321 328 306 235 241 257 267 265 262 280 283 278 271 258 243 233 226 221 217 213 212 212 211 211 210
312 315 317 318 318 314 305 291 278 284 15 23 9 8 14 10 341 325 326 327 308 301 305 297 290 284 276 266 252 239 230 224 221 219 217 215 213 210
317 318 320 324 329 335 14 111 115 102 86 68 51 43 40 44 48 44 21 340 318 306 298 291 285 281 276 268 262 250 238 230 225 222 220 218 215 211
323 326 332 343 16 77 100 105 101 92 80 60 41 46 64 65 46 8 340 326 315 304 292 278 263 243 245 249 256 249 236 233 232 229 225 220 216 212
335 344 356 21 71 91 95 94 88 78 62 46 49 63 53 28 5 346 338 338 336 336 80 125 126 121 106 63 85 169 197 223 242 238 228 219 212 208
354 11 37 63 85 94 92 86 77 58 40 40 50 43 30 10 354 353 7 36 57 81 95 97 93 87 89 89 97 106 103 82 59 181 192 195 195 197
18 58 78 84 88 87 82 73 58 38 32 42 45 38 24 11 12 30 52 67 77 85 89 92 94 95 95 93 92 90 86 83 87 111 135 155 172 180
69 86 90 89 84 78 70 63 55 48 52 57 51 41 32 33 42 54 63 77 86 88 88 91 95 97 96 94 93 93 92 94 95 101 114 129 145 158
97 100 95 88 83 73 64 58 55 59 61 55 51 49 49 52 60 67 72 80 90 91 88 88 93 95 91 88 94 97 96 97 98 100 105 112 125 139
114 111 99 90 86 75 65 61 64 65 61 58 59 59 64 74 81 80 78 76 83 91 91 92 97 98 96 97 103 101 99 98 101 103 106 111 119 130
119 114 106 100 88 77 69 64 65 67 67 69 71 76 88 94 92 87 79 72 71 80 89 89 89 91 93 100 104 101 98 96 100 104 108 111 115 118
114 111 109 101 87 79 68 61 65 75 81 83 84 94 102 104 98 91 83 75 72 77 83 87 89 92 92 94 95 94 92 91 94 100 105 108 113 118
109 109 108 97 85 76 63 60 69 86 92 90 93 103 109 109 104 97 91 86 82 82 85 87 88 88 88 89 92 95 94 92 91 93 99 104 109 114
Height
5683 5677 5670 5664 5657 5650 5644 5637 5632 5629 5627 5622 5618 5613 5608 5605 5602 5601 5600 5599 5600 5602 5603 5605 5607 5610 5614 5618 5623 5628 5632 5638 5642 5647 5652 5657 5662 5667
5668 5661 5654 5647 5641 5633 5626 5620 5614 5609 5606 5603 5599 5596 5590 5585 5582 5580 5579 5578 5579 5580 5583 5585 5587 5590 5594 5598 5604 5609 5614 5620 5626 5631 5637 5642 5648 5654
5653 5646 5639 5631 5624 5617 5609 5602 5595 5589 5585 5583 5577 5574 5570 5566 5564 5561 5560 5559 5560 5561 5563 5565 5568 5570 5573 5578 5583 5589 5595 5601 5608 5615 5621 5627 5633 5640
5639 5631 5624 5616 5608 5600 5593 5585 5578 5571 5565 5562 5559 5556 5554 5551 5549 5547 5545 5544 5545 5547 5549 5551 5552 5553 5555 5558 5563 5569 5575 5582 5591 5598 5605 5613 5619 5626
5624 5616 5608 5601 5593 5585 5577 5569 5562 5555 5550 5547 5544 5542 5541 5539 5537 5535 5534 5534 5535 5536 5538 5540 5539 5539 5540 5542 5546 5551 5558 5565 5574 5582 5589 5597 5605 5613
5609 5601 5592 5584 5576 5568 5561 5554 5548 5543 5538 5534 5532 5530 5529 5528 5527 5526 5526 5525 5526 5527 5527 5528 5528 5528 5528 5530 5534 5538 5543 5550 5558 5567 5575 5584 5592 5601
5593 5585 5576 5568 5560 5553 5548 5543 5537 5532 5527 5524 5522 5521 5521 5520 5519 5519 5519 5519 5518 5518 5518 5518 5518 5519 5519 5520 5523 5527 5533 5539 5546 5555 5563 5572 5580 5589
5579 5571 5562 5555 5548 5543 5537 5532 5527 5522 5519 5517 5516 5515 5515 5514 5513 5513 5512 5512 5513 5513 5512 5513 5512 5513 5514 5515 5518 5521 5526 5531 5538 5546 5554 5562 5571 5579
5565 5558 5550 5544 5538 5534 5529 5524 5519 5515 5513 5512 5511 5511 5510 5509 5508 5508 5508 5508 5509 5509 5509 5510 5510 5511 5511 5513 5515 5518 5522 5526 5532 5539 5547 5555 5563 5571
5553 5546 5540 5535 5529 5525 5521 5517 5514 5511 5509 5509 5509 5508 5507 5506 5505 5505 5506 5506 5507 5507 5507 5508 5508 5509 5509 5511 5513 5515 5519 5523 5528 5534 5540 5547 5555 5562
5543 5537 5532 5526 5521 5517 5513 5511 5510 5509 5508 5508 5507 5506 5505 5505 5504 5504 5505 5506 5506 5505 5505 5506 5506 5507 5508 5509 5511 5513 5515 5519 5523 5528 5534 5540 5547 5554
5536 5531 5526 5521 5516 5511 5509 5508 5508 5508 5508 5508 5507 5506 5505 5505 5505 5505 5505 5505 5505 5504 5504 5504 5504 5504 5505 5506 5506 5508 5510 5514 5518 5523 5528 5534 5541 5549
5532 5528 5523 5518 5513 5510 5508 5508 5509 5509 5509 5509 5508 5508 5507 5507 5506 5506 5506 5505 5504 5502 5502 5501 5500 5500 5501 5501 5502 5503 5505 5508 5512 5516 5521 5527 5534 5543
5529 5525 5521 5517 5514 5512 5511 5511 5512 5512 5512 5511 5511 5510 5509 5509 5508 5507 5506 5504 5501 5499 5497 5497 5497 5498 5499 5499 5500 5501 5502 5504 5506 5509 5514 5519 5526 5534
5527 5524 5521 5519 5517 5516 5515 5515 5515 5515 5515 5514 5513 5512 5512 5511 5509 5507 5505 5501 5498 5496 5495 5495 5497 5498 5499 5499 5500 5500 5501 5502 5503 5504 5505 5509 5517 5527
5528 5526 5523 5521 5520 5520 5520 5519 5519 5519 5518 5516 5516 5515 5514 5512 5510 5507 5504 5501 5499 5498 5498 5498 5499 5500 5501 5502 5502 5502 5503 5502 5501 5500 5501 5504 5511 5520
5530 5528 5526 5525 5525 5524 5524 5523 5522 5521 5520 5519 5519 5518 5516 5514 5511 5509 5507 5505 5504 5503 5504 5504 5504 5505 5506 5507 5507 5506 5506 5505 5503 5503 5504 5507 5512 5520
5531 5530 5529 5529 5529 5528 5527 5526 5525 5524 5523 5522 5522 5520 5519 5516 5515 5513 5512 5511 5510 5510 5510 5510 5510 5511 5512 5513 5513 5512 5511 5510 5510 5510 5511 5514 5519 5525
5533 5533 5532 5532 5532 5532 5530 5529 5528 5527 5527 5526 5525 5523 5522 5520 5519 5519 5518 5517 5517 5517 5517 5517 5517 5518 5519 5520 5520 5518 5518 5518 5518 5518 5519 5522 5527 5532
5535 5535 5535 5535 5535 5535 5534 5532 5531 5531 5530 5529 5528 5527 5526 5525 5525 5525 5524 5524 5524 5524 5524 5524 5524 5525 5526 5527 5527 5527 5526 5526 5527 5528 5529 5531 5536 5540
5538 5538 5538 5539 5539 5538 5537 5536 5535 5534 5534 5533 5532 5531 5531 5531 5531 5531 5531 5531 5531 5530 5530 5531 5531 5531 5532 5533 5533 5534 5534 5534 5534 5536 5538 5541 5545 5549
5541 5541 5542 5542 5542 5542 5541 5540 5539 5538 5538 5538 5537 5536 5537 5538 5538 5539 5539 5539 5539 5538 5538 5539 5539 5539 5540 5540 5541 5542 5542 5543 5543 5544 5546 5549 5553 5557
5544 5545 5545 5546 5546 5546 5545 5544 5543 5543 5543 5543 5542 5543 5544 5545 5545 5546 5547 5547 5548 5547 5548 5548 5548 5549 5549 5550 5551 5551 5552 5554 5555 5557 5559 5560 5563 5567